This is the latest recevied weather packets stored in our database for station/object WK7G. If no packets are shown the sender has not sent any weather packets the latest 10 day(s).
| Time | Temp. | Humidity | Pressure | Rain* | Wind** | Luminosity | Snow |
|---|---|---|---|---|---|---|---|
| 1777668921 | 15.56° C | 25% | 1014.2 hPa | 0 mm | - | 661 W/m² | - |
| 1777668619 | 15° C | 25% | 1014.3 hPa | 0 mm | - | 680 W/m² | - |
| 1777668315 | 15° C | 24% | 1014.7 hPa | 0 mm | - | 689 W/m² | - |
| 1777668011 | 16.11° C | 29% | 1014.6 hPa | 0 mm | - | 691 W/m² | - |
| 1777667708 | 15° C | 28% | 1014.6 hPa | 0 mm | - | 690 W/m² | - |
| 1777667406 | 13.89° C | 27% | 1014.6 hPa | 0 mm | - | 692 W/m² | - |
| 1777667102 | 13.89° C | 29% | 1014.6 hPa | 0 mm | - | 705 W/m² | - |
| 1777666799 | 14.44° C | 26% | 1014.5 hPa | 0 mm | - | 721 W/m² | - |
| 1777666496 | 15° C | 26% | 1014.7 hPa | 0 mm | - | 737 W/m² | - |
| 1777666193 | 15° C | 29% | 1014.8 hPa | 0 mm | - | 739 W/m² | - |
| 1777665890 | 13.89° C | 27% | 1014.6 hPa | 0 mm | - | 762 W/m² | - |
| 1777665587 | 13.89° C | 31% | 1014.8 hPa | 0 mm | - | 767 W/m² | - |
| 1777665284 | 13.89° C | 29% | 1014.8 hPa | 0 mm | - | 773 W/m² | - |
| 1777664979 | 13.89° C | 25% | 1015.3 hPa | 0 mm | - | 785 W/m² | - |
| 1777664675 | 14.44° C | 31% | 1015.1 hPa | 0 mm | - | 789 W/m² | - |
| 1777664371 | 13.89° C | 27% | 1014.8 hPa | 0 mm | - | 790 W/m² | - |
| 1777664070 | 13.33° C | 31% | 1015.1 hPa | 0 mm | - | 817 W/m² | - |
| 1777663767 | 13.89° C | 28% | 1014.9 hPa | 0 mm | - | 822 W/m² | - |
| 1777663464 | 13.89° C | 30% | 1014.9 hPa | 0 mm | - | 832 W/m² | - |
| 1777663162 | 13.89° C | 26% | 1014.9 hPa | 0 mm | - | 827 W/m² | - |
| 1777662859 | 13.89° C | 28% | 1015.1 hPa | 0 mm | - | 832 W/m² | - |
| 1777662556 | 13.33° C | 26% | 1015.1 hPa | 0 mm | - | 824 W/m² | - |
| 1777662252 | 12.78° C | 28% | 1014.9 hPa | 0 mm | - | 830 W/m² | - |
| 1777661952 | 12.78° C | 29% | 1015.3 hPa | 0 mm | - | 849 W/m² | - |
| 1777661649 | 13.33° C | 31% | 1015.2 hPa | 0 mm | - | 867 W/m² | - |
* Rain latest hour (hover to see other rain measurements)
** Current wind speed in m/s (hover to see current wind gust speed)